Location: Unspecified
(0.0000°N, 0.0000°E)
Time: 23:30:39
(UTC+00:00)

Vanguard 2 - Pass Details

Date: 01 October 2020
Orbit: 554 x 2937 km, 32.9° (Epoch: 28 October)

Event Time Altitude Azimuth Distance (km) Brightness Sun altitude
Rises 18:22:00 0° 221° (SW) 5,514 12.6 -8.1°
Reaches altitude 10° 18:28:37 10° 198° (SSW) 5,024 12.0 -9.8°
Maximum altitude 18:35:21 14° 171° (S) 5,081 11.6 -11.5°
Drops below altitude 10° 18:42:50 10° 144° (SE) 5,684 11.6 -13.3°
Enters shadow 18:50:31 - 124° (SE) 6,651 11.8 -15.2°
Sets 18:51:30 0° 122° (ESE) 6,789 - -15.5°
